EW1968 Weather Reports


Display with metric or nautical units.
time (UTC)temp
F
wind
direction
speed
MPH
gust
MPH
rain 1hr
in
rain 24hr
in
rain mn
in
humidity
%
barometer
mb
20260506013015 68 0 4.0 4.0 0.00 0.00 0.00 34 858.0
20260506011514 68 0 4.0 4.0 0.00 0.00 0.00 34 858.0
20260506010014 68 0 4.0 4.0 0.00 0.00 0.00 34 858.0
20260506004515 68 0 4.0 4.0 0.00 0.00 0.00 34 858.0
20260506003015 68 0 4.0 4.0 0.00 0.00 0.00 34 858.0
20260506001515 68 0 4.0 4.0 0.00 0.00 0.00 34 858.0
20260506000014 68 0 4.0 4.0 0.00 0.00 0.00 34 857.0
20260505234514 68 0 4.0 4.0 0.00 0.00 0.00 34 857.0
20260505233014 68 0 4.0 4.0 0.00 0.00 0.00 34 857.0
20260505231514 68 0 4.0 4.0 0.00 0.00 0.00 34 858.0
20260505230014 68 0 4.0 4.0 0.00 0.00 0.00 34 858.0
20260505224514 68 0 4.0 4.0 0.00 0.00 0.00 34 857.0
20260505223014 68 337 3.0 6.0 0.00 0.00 0.00 34 858.0
20260505221516 68 202 4.0 4.0 0.00 0.00 0.00 34 858.0
20260505220015 68 202 4.0 4.0 0.00 0.00 0.00 34 858.0
20260505214515 68 292 6.0 4.0 0.00 0.00 0.00 34 858.0
20260505213014 68 0 5.0 6.0 0.00 0.00 0.00 34 858.0
20260505211514 68 0 4.0 4.0 0.00 0.00 0.00 34 858.0
20260505210014 68 202 4.0 8.0 0.00 0.00 0.00 34 858.0
20260505204515 68 157 4.0 3.0 0.00 0.00 0.00 34 858.0
20260505203014 66 180 6.0 5.0 0.00 0.00 0.00 40 859.0
20260505201515 66 225 4.0 5.0 0.00 0.00 0.00 40 859.0
20260505200014 65 247 3.0 6.0 0.00 0.00 0.00 41 859.0
20260505194515 69 270 5.0 4.0 0.00 0.00 0.00 39 859.0
20260505193015 67 292 3.0 2.0 0.00 0.00 0.00 43 859.0
20260505191515 65 180 6.0 3.0 0.00 0.00 0.00 45 859.0
20260505190015 64 247 3.0 3.0 0.00 0.00 0.00 46 859.0
20260505184515 64 292 4.0 2.0 0.00 0.00 0.00 46 859.0
20260505183014 64 135 4.0 2.0 0.00 0.00 0.00 49 859.0
20260505181514 61 225 3.0 4.0 0.00 0.00 0.00 52 859.0
20260505180014 63 247 4.0 3.0 0.00 0.00 0.00 55 860.0
20260505174515 0 157 3.0 0.0 0.00 0.00 0.00 859.0
20260505173016 0 157 3.0 0.0 0.00 0.00 0.00 859.0
20260505171516 0 157 3.0 3.0 0.00 0.00 0.00 859.0
20260505170015 0 292 2.0 3.0 0.00 0.00 0.00 859.0
20260505164515 0 180 3.0 5.0 0.00 0.00 0.00 859.0
20260505163015 0 180 3.0 5.0 0.00 0.00 0.00 859.0
20260505161515 0 292 3.0 1.0 0.00 0.00 0.00 859.0
20260505153015 0 337 2.0 3.0 0.00 0.00 0.00 859.0
20260505151515 0 247 2.0 3.0 0.00 0.00 0.00 859.0
20260505121514 54 67 0.0 0.0 0.00 0.00 0.00 75 858.0
20260505120015 54 67 0.0 0.0 0.00 0.00 0.00 75 858.0
20260505114515 54 67 0.0 0.0 0.00 0.00 0.00 75 858.0
20260505113015 54 67 0.0 0.0 0.00 0.00 0.00 75 858.0
20260505111515 54 0.0 0.0 0.00 0.00 0.00 75 858.0
20260505100015 0 0.0 0.0 0.00 0.00 0.00 859.0
20260505094516 0 0.0 0.0 0.00 0.00 0.00 859.0
20260505093016 0 0.0 0.0 0.00 0.00 0.00 859.0
20260505091514 0 0.0 0.0 0.00 0.00 0.00 859.0
20260505080015 0 0.0 0.0 0.00 0.00 0.00 861.0
20260505074514 0 0.0 0.0 0.00 0.00 0.00 861.0
20260505073015 0 0.0 0.0 0.00 0.00 0.00 861.0
20260505071515 0 0.0 0.0 0.00 0.00 0.00 861.0
20260505070014 0 0.0 0.0 0.00 0.00 0.00 861.0
20260505064516 0 90 4.0 3.0 0.00 0.00 0.00 861.0
20260505063015 0 90 4.0 3.0 0.00 0.00 0.00 861.0
20260505061515 0 90 4.0 3.0 0.00 0.00 0.00 861.0
20260505053015 0 90 4.0 3.0 0.00 0.00 0.00 861.0
20260505051515 0 90 4.0 3.0 0.00 0.00 0.00 861.0
20260505041515 0 90 4.0 3.0 0.00 0.00 0.00 862.0
20260505040015 0 90 4.0 3.0 0.00 0.00 0.00 861.0
20260505034518 0 90 4.0 3.0 0.00 0.00 0.00 860.0
20260505030016 0 90 4.0 3.0 0.00 0.00 0.00 861.0
20260505024515 0 90 4.0 3.0 0.00 0.00 0.00 860.0
20260505023015 0 90 4.0 3.0 0.00 0.00 0.00 861.0
20260505021516 0 90 4.0 3.0 0.00 0.00 0.00 861.0
20260505020015 0 90 4.0 3.0 0.00 0.00 0.00 861.0
20260505014515 0 90 4.0 3.0 0.00 0.00 0.00 861.0